Hourly Weather Roundup
Issued by NWS Central Illinois

Home | Current Version | Previous Version | Text Only | Print | Product List | Glossary On
Versions: 1 2 3 4 5 6 7 8 9 10 11 12 13 14 15 16 17 18 19 20 21 22 23 24 25 26 27 28 29 30 31 32 33 34 35 36 37 38 39 40 41 42 43 44 45 46 47 48 49 50
000
NZUS43 KILX 210910
HWRILX

AREA WEATHER ROUNDUP
NATIONAL WEATHER SERVICE, LINCOLN IL
400 AM CDT TUE OCT 21 2014


CITY           SKY/WX    TMP DP  RH WIND       PRES   REMARKS
BLOOMINGTON    CLEAR     45  41  86 NW6       30.04S
CHAMPAIGN      CLOUDY    43  42  97 NW6       30.03R FOG
DECATUR        CLEAR     42  39  89 CALM      30.03S
FLORA          CLEAR     44  43  93 CALM      30.02S
GALESBURG      CLEAR     39  37  95 CALM      30.07R
JACKSONVILLE   CLEAR     45  42  88 N5        30.04R
LACON          CLEAR     38  37  96 CALM      30.05S FOG
LAWRENCEVILLE  CLEAR     46  44  93 NW6       30.02R
LITCHFIELD     CLEAR     44  41  88 CALM      30.03R
$$


CITY           SKY/WX    TMP DP  RH WIND       PRES   REMARKS
LINCOLN        CLEAR     45  42  91 N3        30.03R
MACOMB         CLEAR     40  39  95 CALM      30.08R
MATTOON        CLEAR     44  41  89 CALM      30.01S
MT CARMEL AP   CLEAR     45  43  93 CALM      30.01S
OLNEY-NOBLE AP CLEAR     43  41  93 CALM      30.02S
PARIS          MOCLDY    46  45  99 NW3       30.03R FOG
PEORIA         CLEAR     46  41  82 N3        30.05S
PONTIAC        CLOUDY    46  45  93 NW5       30.03S
RANTOUL        PTCLDY    46  43  90 W5        30.03R FOG
ROBINSON       CLEAR     44  43  96 CALM      30.03R
SPRINGFIELD    CLEAR     45  42  89 N3        30.04R
TAYLORVILLE    CLEAR     41  41 100 CALM      30.02S
$$

...REGIONAL REPORTS...


CITY           SKY/WX    TMP DP  RH WIND       PRES   REMARKS
CHICAGO O`HARE CLOUDY    50  40  68 N10       30.02R
KANKAKEE       MOCLDY    48  43  84 NW3       30.03R
MOLINE         CLEAR     39  37  92 CALM      30.08R
MOUNT VERNON   CLEAR     43  39  87 CALM      30.02S
PITTSFIELD     CLEAR     45  41  86 W5        30.05S
QUINCY         CLEAR     45  41  86 N6        30.04S
ROCKFORD       PTCLDY    45  40  82 N6        30.08R
$$


CITY           SKY/WX    TMP DP  RH WIND       PRES   REMARKS
BURLINGTON     CLEAR     46  41  82 CALM      30.06S
CEDAR RAPIDS   CLEAR     40  39  97 N3        30.09R
DES MOINES     CLEAR     46  42  86 N3        30.09R
KIRKSVILLE     CLEAR     43  42  97 NW3       30.08R
OTTUMWA        CLEAR     42  38  85 N5        30.07S
ST LOUIS       CLEAR     50  44  80 W3        30.04S
$$


CITY           SKY/WX    TMP DP  RH WIND       PRES   REMARKS
TERRE HAUTE    CLOUDY    49  46  90 N3        30.01R
EVANSVILLE     CLEAR     47  43  86 CALM      30.01R
INDIANAPOLIS   PTCLDY    46  44  93 NW7       29.99R
LAFAYETTE      MOCLDY    43  42  97 NW6       30.00R FOG
MADISON        CLOUDY    47  40  76 N6        30.08R
MILWAUKEE      MOCLDY    47  39  74 N8        30.05R
$$




USA.gov is the U.S. government's official web portal to all federal, state and local government web resources and services.